OV1-14 R/B, 3177

Orbit data source: Space-Track

OV1-14 R/B, 3177 is space debris originally from a launch on Sat, 06 Apr 1968 UTC launched from the Air Force Western Test Range (AFWTR). Debris objects in space refer to the collection of defunct objects orbiting the Earth. Examples of debris include non-operational satellites, rocket bodies, and fragments generated from explosions, collisions, or faulty payload assembly.

Loading next visibility...
Identifier
3177, 1968-026C
Orbit
Active
Country
Flag of USUS
Related business
Manufacturer
UTC
Mission
Spacecraft
Bus & Motor
FW4, Unknown motor
Mass
125 kg wet, 125 kg dry
Launch date (UTC)
1968-04-06 (58 years ago)
Launch vehicle
Unknown
Launch site
Air Force Western Test Range (AFWTR)
Object type
Payload
Rocket body
Debris
Shape & HBR
Unknown
Radar Cross Section
Medium (>0.1 m² and <1 m²)

Expand to show TLE details & history
Last TLE update: 9 hours ago

TLE from 9 hours ago
0 OV1-14 R/B
1  3177U 68026C   26127.58610726  .00000377  00000-0  56324-3 0  9993
2  3177  99.9688 358.2123 4014380 308.9484  34.1554  6.98161071474375
Epoch: 2026-05-07T14:03Z
TLE epoch observation values (Epoch: 2026-05-07T14:03:59.667Z)
Latitude
22.50615°
Longitude
-82.37379°
Altitude
2,353.46 km
Speed
7.542 km/s
True Right ascension
23h 36m 13s
True Declination
22° 24' 25"
Sunlit
Object was in daylight at epoch
Visualization orbit readout
Latitude
Unknown
Longitude
Unknown
Altitude
Unknown
Speed
Unknown
Apparent Right ascension
Unknown
Apparent Declination
Unknown
Sunlit
N/A
Visualization observer readout
Local Sidereal Time
07:10:52
Azimuth
Unknown
Elevation
Unknown
Doppler factor
Unknown
Orbital elements
Apogee altitude
9,824.568 km
Perigee altitude
542.129 km
Semi-major axis
11,561.486 km
Eccentricity
0.40144
Inclination
99.9688°
RAAN
358.2123°
Arg. of periapsis
308.9484°
True anomaly
73.9196°
Mean anomaly
34.1554°
Eccentric anomaly
52.37168°
Mean motion
1.74591 °/min
Orbital period
206.2 mins
BSTAR
0.00056324
Loading maneuver chart data...
Computing Atmospheric mass density...
Loading historical data...
Loading historical data...
Loading historical data...
Loading historical data...
Loading historical data...
Loading historical data...
Loading historical data...
Other satellites on launch #26 in the year 1968 (1968-04-06 UTC)

Documentation

Showing up to 5 results
|